{"data":{"norad_id":81749,"epoch":"2026-05-23T12:43:09.661152Z","epoch_age_seconds":199187,"freshness":"STALE","line1":"1 81749U          26143.52997293  .00000087  00000+0  42200-3 0  9996","line2":"2 81749  99.6680 155.2026 0368028 215.8731 302.1126 12.77659808582669","mean_motion":12.77659808,"eccentricity":0.0368028,"inclination_deg":99.668,"raan_deg":155.2026,"arg_perigee_deg":215.8731,"mean_anomaly_deg":302.1126,"bstar":0.000422,"rev_number":58266,"period_min":112.70605766758,"perigee_km":1066.443503796,"apogee_km":1635.3434286818,"semimajor_km":7729.0304662389,"source":"CELESTRAK","updated_at":"2026-05-25T13:38:11.082929Z"}}